�搅�E���B���j�^�v������
Date,Time,�搅(cps),���B(cps),���J
2024/07/11,00:00,3.5,3.8,��
2024/07/11,00:10,3.4,3.9,��
2024/07/11,00:20,3.5,3.9,��
2024/07/11,00:30,3.5,3.8,��
2024/07/11,00:40,3.4,3.8,��
2024/07/11,00:50,3.5,3.7,��
2024/07/11,01:00,3.4,3.8,�L
2024/07/11,01:10,3.3,3.8,�L
2024/07/11,01:20,3.3,3.8,��
2024/07/11,01:30,3.5,3.9,��
2024/07/11,01:40,3.4,3.8,��
2024/07/11,01:50,3.4,3.8,��
2024/07/11,02:00,3.4,3.7,��
2024/07/11,02:10,3.4,3.8,��
2024/07/11,02:20,3.4,3.8,��
2024/07/11,02:30,3.3,3.9,��
2024/07/11,02:40,3.3,3.8,��
2024/07/11,02:50,3.4,3.7,��
2024/07/11,03:00,3.4,3.7,��
2024/07/11,03:10,3.3,3.8,��
2024/07/11,03:20,3.4,3.7,��
2024/07/11,03:30,3.4,3.8,��
2024/07/11,03:40,3.4,3.9,��
2024/07/11,03:50,3.4,3.8,��
2024/07/11,04:00,3.3,3.7,��
2024/07/11,04:10,3.3,3.7,�L
2024/07/11,04:20,3.3,3.7,��
2024/07/11,04:30,3.4,3.7,��
2024/07/11,04:40,3.4,3.8,��
2024/07/11,04:50,3.5,3.8,��
2024/07/11,05:00,3.3,3.8,��
2024/07/11,05:10,3.4,3.8,��
2024/07/11,05:20,3.4,3.7,��
2024/07/11,05:30,3.3,3.7,��
2024/07/11,05:40,3.4,3.7,��
2024/07/11,05:50,3.3,3.7,��
2024/07/11,06:00,3.3,3.6,��
2024/07/11,06:10,3.3,3.7,��
2024/07/11,06:20,3.2,3.7,��
2024/07/11,06:30,3.4,3.7,��
2024/07/11,06:40,3.5,3.6,��
2024/07/11,06:50,3.4,3.7,��
2024/07/11,07:00,3.4,3.8,��
2024/07/11,07:10,3.4,3.8,��
2024/07/11,07:20,3.4,3.8,��
2024/07/11,07:30,3.4,3.7,��
2024/07/11,07:40,3.4,3.7,��
2024/07/11,07:50,3.4,3.7,�L
2024/07/11,08:00,3.4,3.8,�L
2024/07/11,08:10,3.4,3.8,��
2024/07/11,08:20,3.3,3.8,��
2024/07/11,08:30,3.3,3.8,��
2024/07/11,08:40,3.4,3.7,�L
2024/07/11,08:50,3.4,3.8,�L
2024/07/11,09:00,3.4,3.8,�L
2024/07/11,09:10,3.5,3.7,�L
2024/07/11,09:20,3.5,3.7,�L
2024/07/11,09:30,3.4,3.7,�L
2024/07/11,09:40,3.5,3.9,�L
2024/07/11,09:50,3.5,3.9,�L
2024/07/11,10:00,3.7,4.0,��
2024/07/11,10:10,3.9,3.9,�L
2024/07/11,10:20,3.8,3.9,�L
2024/07/11,10:30,3.8,3.9,�L
2024/07/11,10:40,3.6,3.9,�L
2024/07/11,10:50,3.7,4.0,�L
2024/07/11,11:00,3.6,3.9,�L
2024/07/11,11:10,3.8,4.0,��
2024/07/11,11:20,3.9,3.9,��
2024/07/11,11:30,4.0,4.2,��
2024/07/11,11:40,3.9,4.2,��
2024/07/11,11:50,3.7,4.2,�L
2024/07/11,12:00,3.5,4.1,�L
2024/07/11,12:10,3.7,4.1,�L
2024/07/11,12:20,3.8,4.0,�L
2024/07/11,12:30,3.7,4.0,�L
2024/07/11,12:40,3.5,3.9,�L
2024/07/11,12:50,3.6,3.8,�L
2024/07/11,13:00,3.7,3.9,��
2024/07/11,13:10,3.7,4.0,��
2024/07/11,13:20,3.7,3.9,�L
2024/07/11,13:30,3.6,3.9,��
2024/07/11,13:40,3.5,3.9,�L
2024/07/11,13:50,3.5,3.9,�L
2024/07/11,14:00,3.4,4.0,�L
2024/07/11,14:10,3.5,3.9,�L
2024/07/11,14:20,3.6,3.9,�L
2024/07/11,14:30,3.7,3.9,�L
2024/07/11,14:40,3.7,4.0,�L
2024/07/11,14:50,3.7,4.0,�L
2024/07/11,15:00,3.6,4.1,�L
2024/07/11,15:10,3.6,4.0,��
2024/07/11,15:20,3.7,4.0,��
2024/07/11,15:30,3.7,4.0,��
2024/07/11,15:40,3.6,3.9,��
2024/07/11,15:50,3.4,3.9,��
2024/07/11,16:00,3.5,3.9,��
2024/07/11,16:10,3.5,3.8,��
2024/07/11,16:20,3.5,3.7,��
2024/07/11,16:30,3.4,3.8,��
2024/07/11,16:40,3.4,3.7,��
2024/07/11,16:50,3.4,3.8,��
2024/07/11,17:00,3.4,3.7,��
2024/07/11,17:10,3.4,3.8,��
2024/07/11,17:20,3.4,3.7,��
2024/07/11,17:30,3.3,3.7,��
2024/07/11,17:40,3.3,3.8,��
2024/07/11,17:50,3.3,3.8,��
2024/07/11,18:00,3.4,3.7,��
2024/07/11,18:10,3.3,3.7,��
2024/07/11,18:20,3.2,3.7,��
2024/07/11,18:30,3.2,3.8,��
2024/07/11,18:40,3.3,3.7,��
2024/07/11,18:50,3.5,3.7,��
2024/07/11,19:00,3.4,3.7,��
2024/07/11,19:10,3.4,3.7,��
2024/07/11,19:20,3.4,3.6,��
2024/07/11,19:30,3.4,3.6,��
2024/07/11,19:40,3.4,3.5,��
2024/07/11,19:50,3.2,3.7,��
2024/07/11,20:00,3.3,3.8,��
2024/07/11,20:10,3.4,3.7,��
2024/07/11,20:20,3.4,3.7,��
2024/07/11,20:30,3.4,3.7,��
2024/07/11,20:40,3.3,3.7,��
2024/07/11,20:50,3.2,3.7,��
2024/07/11,21:00,3.2,3.7,��
2024/07/11,21:10,3.4,3.6,��
2024/07/11,21:20,3.3,3.7,��
2024/07/11,21:30,3.5,3.7,��
2024/07/11,21:40,3.4,3.7,��
2024/07/11,21:50,3.4,3.8,��
2024/07/11,22:00,3.3,3.8,��
2024/07/11,22:10,3.2,3.7,��
2024/07/11,22:20,3.2,3.7,��
2024/07/11,22:30,3.2,3.8,��
2024/07/11,22:40,3.4,3.6,��
2024/07/11,22:50,3.5,3.8,��
2024/07/11,23:00,3.4,3.8,��
2024/07/11,23:10,3.4,3.8,��
2024/07/11,23:20,3.4,3.8,��
2024/07/11,23:30,3.3,3.8,��
2024/07/11,23:40,3.5,3.7,��
2024/07/11,23:50,3.4,3.7,��
